This is the latest recevied weather packets stored in our database for station/object W9WRP. If no packets are shown the sender has not sent any weather packets the latest 10 day(s).
| Time | Temp. | Humidity | Pressure | Rain* | Wind** | Luminosity | Snow |
|---|---|---|---|---|---|---|---|
| 1787784146 | 47.22° C | 12% | 1011.2 hPa | 0 mm | - | 398 W/m² | - |
| 1787783842 | 47.78° C | 12% | 1011.2 hPa | 0 mm | - | 436 W/m² | - |
| 1787783537 | 47.22° C | 12% | 1011 hPa | 0 mm | - | 306 W/m² | - |
| 1787783232 | 47.22° C | 12% | 1011.4 hPa | 0 mm | - | 448 W/m² | - |
| 1787782927 | 47.22° C | 12% | 1011.3 hPa | 0 mm | - | 494 W/m² | - |
| 1787782626 | 47.78° C | 12% | 1011.4 hPa | 0 mm | - | 507 W/m² | - |
| 1787782321 | 47.78° C | 12% | 1011.5 hPa | 0 mm | - | 522 W/m² | - |
| 1787782017 | 47.78° C | 12% | 1011.7 hPa | 0 mm | - | 444 W/m² | - |
| 1787781712 | 47.78° C | 12% | 1011.7 hPa | 0 mm | - | 463 W/m² | - |
| 1787781409 | 47.78° C | 12% | 1011.6 hPa | 0 mm | - | 559 W/m² | - |
| 1787781103 | 47.22° C | 12% | 1011.8 hPa | 0 mm | - | 582 W/m² | - |
| 1787780803 | 47.22° C | 12% | 1011.9 hPa | 0 mm | - | 596 W/m² | - |
| 1787780502 | 47.78° C | 12% | 1011.9 hPa | 0 mm | - | 613 W/m² | - |
| 1787780198 | 47.78° C | 12% | 1012.1 hPa | 0 mm | - | 632 W/m² | - |
| 1787779893 | 47.78° C | 11% | 1012.2 hPa | 0 mm | - | 651 W/m² | - |
| 1787779588 | 46.67° C | 12% | 1012.1 hPa | 0 mm | - | 674 W/m² | - |
| 1787779288 | 47.22° C | 12% | 1012.4 hPa | 0 mm | - | 621 W/m² | - |
| 1787778982 | 47.78° C | 12% | 1012.2 hPa | 0 mm | - | 638 W/m² | - |
| 1787778678 | 47.22° C | 12% | 1012.4 hPa | 0 mm | - | 688 W/m² | - |
| 1787778374 | 47.22° C | 12% | 1012.6 hPa | 0 mm | - | 682 W/m² | - |
| 1787778070 | 46.67° C | 12% | 1012.5 hPa | 0 mm | - | 578 W/m² | - |
| 1787777769 | 46.67° C | 12% | 1012.6 hPa | 0 mm | - | 694 W/m² | - |
| 1787777466 | 47.22° C | 11% | 1012.6 hPa | 0 mm | - | 350 W/m² | - |
| 1787777160 | 47.22° C | 12% | 1012.7 hPa | 0 mm | - | 677 W/m² | - |
| 1787776858 | 46.67° C | 12% | 1012.8 hPa | 0 mm | - | 682 W/m² | - |
* Rain latest hour (hover to see other rain measurements)
** Current wind speed in m/s (hover to see current wind gust speed)